Location: Düngen
(52.0952°N, 10.0219°E)
Time: 15:47:04
(UTC+00:00)

Cosmos 2278 Rocket - Pass Details

Date: 11 March 2026
Orbit: 838 x 846 km, 71.0° (Epoch: 14 April)

Event Time Altitude Azimuth Distance (km) Brightness Sun altitude
Rises 18:30:21 0° 220° (SW) 3,388 5.8 -12.0°
Reaches altitude 10° 18:32:49 10° 223° (SW) 2,459 5.1 -12.4°
Maximum altitude 18:38:25 64° 305° (NW) 938 2.7 -13.2°
Drops below altitude 10° 18:44:04 10° 27° (NNE) 2,478 4.5 -14.1°
Sets 18:46:34 0° 31° (NNE) 3,418 5.2 -14.4°
